| time (UTC) | temp F | wind direction | speed MPH | gust MPH | rain 1hr in | rain 24hr in | rain mn in | humidity % | barometer mb |
| 20260504222315 | 51 | 345 | 7.0 | 16.0 | 0.00 | 0.00 | 0.00 | 51 | 1012.9 |
| 20260504221750 | 52 | 311 | 7.0 | 17.0 | 0.00 | 0.00 | 0.00 | 49 | 1013.2 |
| 20260504220313 | 55 | 12 | 6.0 | 13.0 | 0.00 | 0.00 | 0.00 | 42 | 1013.0 |
| 20260504215313 | 56 | 321 | 2.0 | 7.0 | 0.00 | 0.00 | 0.00 | 38 | 1012.8 |
| 20260504214315 | 56 | 355 | 3.0 | 8.0 | 0.00 | 0.00 | 0.00 | 38 | 1012.8 |
| 20260504213313 | 58 | 29 | 1.0 | 3.0 | 0.00 | 0.00 | 0.00 | 36 | 1012.9 |
| 20260504212312 | 58 | 116 | 2.0 | 6.0 | 0.00 | 0.00 | 0.00 | 33 | 1012.4 |
| 20260504211310 | 58 | 109 | 2.0 | 5.0 | 0.00 | 0.00 | 0.00 | 34 | 1012.4 |
| 20260504210310 | 58 | 70 | 0.0 | 5.0 | 0.00 | 0.00 | 0.00 | 34 | 1012.7 |
| 20260504205309 | 57 | 314 | 1.0 | 5.0 | 0.00 | 0.00 | 0.00 | 35 | 1012.8 |
| 20260504204307 | 58 | 354 | 1.0 | 5.0 | 0.00 | 0.00 | 0.00 | 38 | 1013.0 |
| 20260504203301 | 57 | 47 | 2.0 | 8.0 | 0.00 | 0.00 | 0.00 | 38 | 1013.3 |
| 20260504202300 | 56 | 326 | 3.0 | 10.0 | 0.00 | 0.00 | 0.00 | 43 | 1013.7 |
| 20260504202238 | 55 | 280 | 5.0 | 16.0 | 0.00 | 0.00 | 0.00 | 44 | 1013.9 |
| 20260504200727 | 53 | 256 | 6.0 | 13.0 | 0.00 | 0.00 | 0.00 | 50 | 1013.9 |
| 20260504195241 | 52 | 319 | 7.0 | 14.0 | 0.00 | 0.00 | 0.00 | 54 | 1014.4 |
| 20260504194241 | 51 | 284 | 5.0 | 13.0 | 0.00 | 0.00 | 0.00 | 58 | 1014.8 |
| 20260504193242 | 52 | 311 | 7.0 | 23.0 | 0.00 | 0.00 | 0.00 | 48 | 1014.5 |
| 20260504192243 | 55 | 291 | 1.0 | 5.0 | 0.00 | 0.00 | 0.00 | 39 | 1014.4 |
| 20260504191242 | 55 | 31 | 3.0 | 9.0 | 0.00 | 0.00 | 0.00 | 39 | 1014.0 |
| 20260504190715 | 55 | 39 | 2.0 | 8.0 | 0.00 | 0.00 | 0.00 | 39 | 1013.9 |
| 20260504185242 | 54 | 89 | 3.0 | 9.0 | 0.00 | 0.00 | 0.00 | 40 | 1014.3 |
| 20260504184224 | 53 | 49 | 4.0 | 16.0 | 0.00 | 0.00 | 0.00 | 42 | 1014.3 |
| 20260504183657 | 54 | 84 | 6.0 | 15.0 | 0.00 | 0.00 | 0.00 | 38 | 1014.4 |
| 20260504182224 | 55 | 255 | 8.0 | 17.0 | 0.00 | 0.00 | 0.00 | 34 | 1014.2 |
| 20260504181224 | 56 | 263 | 5.0 | 15.0 | 0.00 | 0.00 | 0.00 | 32 | 1013.9 |
| 20260504180223 | 56 | 305 | 7.0 | 16.0 | 0.00 | 0.00 | 0.00 | 33 | 1013.8 |
| 20260504175220 | 57 | 295 | 5.0 | 13.0 | 0.00 | 0.00 | 0.00 | 34 | 1013.8 |
| 20260504174220 | 57 | 332 | 5.0 | 14.0 | 0.00 | 0.00 | 0.00 | 32 | 1013.8 |
| 20260504173208 | 57 | 338 | 5.0 | 15.0 | 0.00 | 0.00 | 0.00 | 32 | 1013.9 |
| 20260504172206 | 57 | 354 | 6.0 | 16.0 | 0.00 | 0.00 | 0.00 | 32 | 1014.3 |
| 20260504171205 | 57 | 345 | 9.0 | 20.0 | 0.00 | 0.00 | 0.00 | 32 | 1014.3 |
| 20260504170205 | 58 | 321 | 9.0 | 18.0 | 0.00 | 0.00 | 0.00 | 32 | 1014.3 |
| 20260504160159 | 56 | 250 | 3.0 | 11.0 | 0.00 | 0.00 | 0.00 | 35 | 1015.0 |
| 20260504150142 | 54 | 262 | 2.0 | 6.0 | 0.00 | 0.00 | 0.00 | 37 | 1015.3 |
| 20260504141136 | 50 | 247 | 1.0 | 5.0 | 0.00 | 0.00 | 0.00 | 38 | 1015.4 |
| 20260504140135 | 46 | 302 | 0.0 | 2.0 | 0.00 | 0.00 | 0.00 | 46 | 1015.3 |
| 20260504130124 | 40 | 321 | 0.0 | 2.0 | 0.00 | 0.00 | 0.00 | 50 | 1015.0 |
| 20260504120104 | 38 | 315 | 0.0 | 3.0 | 0.00 | 0.00 | 0.00 | 54 | 1014.9 |
| 20260504110510 | 38 | 319 | 0.0 | 4.0 | 0.00 | 0.00 | 0.00 | 50 | 1015.2 |
| 20260504081947 | 40 | 315 | 0.0 | 1.0 | 0.00 | 0.00 | 0.00 | 47 | 1015.8 |
| 20260504080946 | 41 | 315 | 0.0 | 3.0 | 0.00 | 0.00 | 0.00 | 46 | 1015.9 |
| 20260504070407 | 41 | 311 | 0.0 | 3.0 | 0.00 | 0.00 | 0.00 | 50 | 1016.6 |
| 20260504045831 | 45 | 353 | 0.0 | 1.0 | 0.00 | 0.00 | 0.00 | 47 | 1017.2 |
| 20260504044820 | 45 | 353 | 0.0 | 1.0 | 0.00 | 0.00 | 0.00 | 46 | 1017.3 |
| 20260504043818 | 46 | 274 | 0.0 | 1.0 | 0.00 | 0.00 | 0.00 | 47 | 1017.4 |
| 20260504042818 | 47 | 277 | 0.0 | 1.0 | 0.00 | 0.00 | 0.00 | 46 | 1017.4 |
| 20260504041819 | 49 | 277 | 0.0 | 1.0 | 0.00 | 0.00 | 0.00 | 43 | 1017.6 |
| 20260504040812 | 50 | 250 | 0.0 | 1.0 | 0.00 | 0.00 | 0.00 | 39 | 1017.6 |
| 20260504040247 | 51 | 266 | 1.0 | 3.0 | 0.00 | 0.00 | 0.00 | 38 | 1017.6 |
| 20260504034801 | 51 | 249 | 2.0 | 6.0 | 0.00 | 0.00 | 0.00 | 35 | 1017.7 |
| 20260504033802 | 51 | 285 | 0.0 | 2.0 | 0.00 | 0.00 | 0.00 | 36 | 1017.7 |
| 20260504032801 | 52 | 224 | 0.0 | 1.0 | 0.00 | 0.00 | 0.00 | 33 | 1017.6 |
| 20260504032236 | 52 | 268 | 0.0 | 3.0 | 0.00 | 0.00 | 0.00 | 35 | 1017.7 |
| 20260504030757 | 53 | 262 | 1.0 | 2.0 | 0.00 | 0.00 | 0.00 | 32 | 1017.7 |
| 20260504030235 | 53 | 271 | 1.0 | 2.0 | 0.00 | 0.00 | 0.00 | 34 | 1017.6 |
| 20260504024758 | 54 | 248 | 1.0 | 7.0 | 0.00 | 0.00 | 0.00 | 30 | 1017.6 |
| 20260504023759 | 53 | 250 | 3.0 | 7.0 | 0.00 | 0.00 | 0.00 | 33 | 1017.4 |
| 20260504022743 | 54 | 208 | 6.0 | 10.0 | 0.00 | 0.00 | 0.00 | 34 | 1017.6 |
| 20260504021727 | 54 | 231 | 6.0 | 10.0 | 0.00 | 0.00 | 0.00 | 34 | 1017.3 |
| 20260504020724 | 55 | 249 | 6.0 | 14.0 | 0.00 | 0.00 | 0.00 | 33 | 1017.4 |
| 20260504015723 | 55 | 301 | 4.0 | 11.0 | 0.00 | 0.00 | 0.00 | 31 | 1017.3 |
| 20260504014721 | 56 | 231 | 1.0 | 7.0 | 0.00 | 0.00 | 0.00 | 31 | 1017.3 |
| 20260504013723 | 56 | 242 | 1.0 | 5.0 | 0.00 | 0.00 | 0.00 | 30 | 1017.3 |
| 20260504012722 | 56 | 328 | 0.0 | 2.0 | 0.00 | 0.00 | 0.00 | 30 | 1017.2 |
| 20260504011714 | 56 | 72 | 1.0 | 5.0 | 0.00 | 0.00 | 0.00 | 30 | 1017.1 |
| 20260504010711 | 57 | 92 | 3.0 | 7.0 | 0.00 | 0.00 | 0.00 | 29 | 1017.2 |
| 20260504005710 | 58 | 142 | 2.0 | 6.0 | 0.00 | 0.00 | 0.00 | 27 | 1017.2 |
| 20260504004711 | 59 | 103 | 1.0 | 7.0 | 0.00 | 0.00 | 0.00 | 27 | 1017.1 |
| 20260504003703 | 59 | 257 | 2.0 | 9.0 | 0.00 | 0.00 | 0.00 | 25 | 1016.9 |
| 20260504003615 | 60 | 285 | 3.0 | 8.0 | 0.00 | 0.00 | 0.00 | 24 | 1016.9 |
| 20260504001700 | 60 | 313 | 4.0 | 12.0 | 0.00 | 0.00 | 0.00 | 23 | 1016.8 |
| 20260504000700 | 60 | 263 | 5.0 | 12.0 | 0.00 | 0.00 | 0.00 | 23 | 1016.6 |
| 20260503235702 | 60 | 295 | 7.0 | 23.0 | 0.00 | 0.00 | 0.00 | 25 | 1016.7 |
| 20260503234656 | 60 | 243 | 5.0 | 14.0 | 0.00 | 0.00 | 0.00 | 25 | 1016.9 |
| 20260503233653 | 60 | 284 | 8.0 | 20.0 | 0.00 | 0.00 | 0.00 | 25 | 1017.1 |
| 20260503232654 | 61 | 331 | 7.0 | 23.0 | 0.00 | 0.00 | 0.00 | 24 | 1016.9 |
| 20260503231651 | 61 | 221 | 6.0 | 17.0 | 0.00 | 0.00 | 0.00 | 19 | 1016.8 |
| 20260503230653 | 62 | 212 | 4.0 | 10.0 | 0.00 | 0.00 | 0.00 | 20 | 1016.6 |
| 20260503230611 | 62 | 255 | 4.0 | 13.0 | 0.00 | 0.00 | 0.00 | 21 | 1016.8 |
| 20260503224651 | 62 | 245 | 5.0 | 11.0 | 0.00 | 0.00 | 0.00 | 20 | 1016.9 |
| 20260503223649 | 61 | 242 | 3.0 | 7.0 | 0.00 | 0.00 | 0.00 | 23 | 1016.9 |